Weather History for Logansport, IN

Change the Weather History Date:

Wednesday, December 18, 2013

  Actual Average Record
Temperature  
Mean Temperature 22 °F -  
Max Temperature 37 °F 35 °F 41 °F (2012)
Min Temperature 8 °F 25 °F 8 °F (2013)
Degree Days  
Heating Degree Days 42    
Moisture  
Dew Point 15 °F    
Average Humidity 74    
Maximum Humidity 92    
Minimum Humidity 55    
Precipitation  
Precipitation 0.00 in - - ()
Sea Level Pressure  
Sea Level Pressure 30.10 in    
Wind  
Wind Speed 11 mph (SSW)    
Max Wind Speed 21 mph    
Max Gust Speed 26 mph    
Visibility 10 miles    
Events      
Averages and records for this station are not official NWS values.
T = Trace of Precipitation, MM = Missing Value Source: NWS Daily Summary

Daily Weather History Graph

Daily Weather History Graph

Search for Another Location

Airport:

Trip Planner

Search our weather history database for the weather conditions in past years. The results will help you decide how hot, cold, wet, or windy it might be!

Date:

Astronomy

Dec. 18, 2013 Rise Set
Actual Time 8:04 AM EST 5:20 PM EST
Civil Twilight 7:33 AM EST 5:51 PM EST
Nautical Twilight 6:59 AM EST 6:25 PM EST
Astronomical Twilight 6:25 AM EST 6:58 PM EST
Moon 6:52 PM EST 8:43 AM EST
Length of Visible Light 10h 17m
Length of Day
9h 15m
Full, 98% of the Moon is Illuminated
Dec 18
Full
Dec 25
Last Quarter
Jan 1
New
Jan 7
First Quarter
Jan 15
Full

Hourly Weather History & Observations

Time (EST) Temp. Windchill Dew Point Humidity Pressure Visibility Wind Dir Wind Speed Gust Speed Precip Events Conditions
12:15 AM 21.2 °F 10.9 °F 17.6 °F 86% 30.11 in 10.0 mi WSW 9.2 mph - N/A   Overcast
12:35 AM 21.2 °F 10.9 °F 17.6 °F 86% 30.11 in 10.0 mi WSW 9.2 mph - N/A   Overcast
12:55 AM 21.2 °F 10.1 °F 17.6 °F 86% 30.11 in 10.0 mi WSW 10.4 mph - N/A   Overcast
1:15 AM 21.2 °F 10.1 °F 17.6 °F 86% 30.10 in 10.0 mi WSW 10.4 mph - N/A   Overcast
1:35 AM 21.2 °F 10.1 °F 17.6 °F 86% 30.11 in 10.0 mi WSW 10.4 mph - N/A   Overcast
1:55 AM 21.2 °F 9.5 °F 17.6 °F 86% 30.11 in 10.0 mi WSW 11.5 mph - N/A   Overcast
2:15 AM 23.0 °F 13.1 °F 19.4 °F 86% 30.11 in 10.0 mi WSW 9.2 mph - N/A   Overcast
2:35 AM 23.0 °F 11.1 °F 19.4 °F 86% 30.12 in 10.0 mi WSW 12.7 mph - N/A   Overcast
2:55 AM 23.0 °F 11.1 °F 19.4 °F 86% 30.12 in 10.0 mi WSW 12.7 mph - N/A   Overcast
3:15 AM 23.0 °F 11.1 °F 19.4 °F 86% 30.12 in 10.0 mi WSW 12.7 mph - N/A   Overcast
3:35 AM 23.0 °F 11.1 °F 19.4 °F 86% 30.13 in 10.0 mi West 12.7 mph - N/A   Overcast
3:55 AM 23.0 °F 11.7 °F 17.6 °F 80% 30.13 in 10.0 mi West 11.5 mph - N/A   Overcast
4:15 AM 19.4 °F 6.6 °F 14.0 °F 80% 30.14 in 10.0 mi West 12.7 mph - N/A   Mostly Cloudy
4:35 AM 17.6 °F 5.7 °F 12.2 °F 79% 30.14 in 10.0 mi West 10.4 mph - N/A   Scattered Clouds
4:55 AM 14.0 °F 0.5 °F 10.4 °F 86% 30.14 in 10.0 mi WSW 11.5 mph - N/A   Clear
5:15 AM 14.0 °F -0.2 °F 10.4 °F 86% 30.15 in 10.0 mi WSW 12.7 mph - N/A   Clear
5:35 AM 14.0 °F 0.5 °F 10.4 °F 86% 30.15 in 10.0 mi WSW 11.5 mph - N/A   Clear
5:55 AM 12.2 °F -2.5 °F 8.6 °F 85% 30.15 in 10.0 mi WSW 12.7 mph - N/A   Clear
6:15 AM 12.2 °F -1.0 °F 10.4 °F 92% 30.15 in 10.0 mi WSW 10.4 mph - N/A   Clear
6:35 AM 12.2 °F -0.2 °F 8.6 °F 85% 30.16 in 10.0 mi WSW 9.2 mph - N/A   Clear
6:55 AM 12.2 °F -1.0 °F 8.6 °F 85% 30.17 in 10.0 mi WSW 10.4 mph - N/A   Clear
7:15 AM 10.4 °F -2.4 °F 8.6 °F 92% 30.18 in 10.0 mi WSW 9.2 mph - N/A   Clear
7:35 AM 10.4 °F -1.5 °F 8.6 °F 92% 30.18 in 10.0 mi WSW 8.1 mph - N/A   Clear
7:55 AM 8.6 °F -3.7 °F 5.0 °F 85% 30.19 in 10.0 mi SW 8.1 mph - N/A   Clear
8:15 AM 8.6 °F -3.7 °F 5.0 °F 85% 30.19 in 10.0 mi SW 8.1 mph - N/A   Clear
8:35 AM 8.6 °F -4.7 °F 5.0 °F 85% 30.20 in 10.0 mi SW 9.2 mph - N/A   Clear
8:55 AM 10.4 °F 0.8 °F 5.0 °F 79% 30.20 in 10.0 mi SW 5.8 mph - N/A   Clear
9:15 AM 12.2 °F -1.0 °F 8.6 °F 85% 30.21 in 10.0 mi SW 10.4 mph - N/A   Clear
9:35 AM 12.2 °F -0.2 °F 8.6 °F 85% 30.21 in 10.0 mi SW 9.2 mph - N/A   Clear
9:55 AM 12.2 °F -1.0 °F 8.6 °F 85% 30.21 in 10.0 mi SW 10.4 mph - N/A   Clear
10:15 AM 14.0 °F 1.2 °F 8.6 °F 79% 30.22 in 10.0 mi SW 10.4 mph - N/A   Clear
10:35 AM 14.0 °F 3.9 °F 10.4 °F 86% 30.22 in 10.0 mi SW 6.9 mph - N/A   Clear
10:55 AM 17.6 °F 8.2 °F 10.4 °F 73% 30.23 in 10.0 mi SW 6.9 mph - N/A   Clear
11:15 AM 17.6 °F 7.3 °F 12.2 °F 79% 30.23 in 10.0 mi SW 8.1 mph - N/A   Clear
11:35 AM 17.6 °F 7.3 °F 12.2 °F 79% 30.23 in 10.0 mi SW 8.1 mph - N/A   Clear
11:55 AM 19.4 °F 10.4 °F 12.2 °F 74% 30.22 in 10.0 mi SSW 6.9 mph - N/A   Clear
12:15 PM 19.4 °F 12.8 °F 12.2 °F 74% 30.22 in 10.0 mi SW 4.6 mph - N/A   Clear
12:35 PM 21.2 °F 12.6 °F 14.0 °F 74% 30.21 in 10.0 mi SSW 6.9 mph - N/A   Clear
12:55 PM 21.2 °F 13.6 °F 14.0 °F 74% 30.19 in 10.0 mi SSW 5.8 mph - N/A   Clear
1:15 PM 23.0 °F 14.7 °F 14.0 °F 68% 30.17 in 10.0 mi South 6.9 mph - N/A   Clear
1:35 PM 23.0 °F 14.7 °F 15.8 °F 74% 30.17 in 10.0 mi South 6.9 mph - N/A   Clear
1:55 PM 24.8 °F 16.1 °F 17.6 °F 74% 30.15 in 10.0 mi South 8.1 mph - N/A   Clear
2:15 PM 26.6 °F 20.0 °F 17.6 °F 69% 30.14 in 10.0 mi South 5.8 mph - N/A   Clear
2:35 PM 26.6 °F 17.5 °F 17.6 °F 69% 30.13 in 10.0 mi South 9.2 mph - N/A   Clear
2:55 PM 26.6 °F 16.8 °F 17.6 °F 69% 30.12 in 10.0 mi South 10.4 mph - N/A   Clear
3:15 PM 26.6 °F 18.2 °F 17.6 °F 69% 30.11 in 10.0 mi South 8.1 mph - N/A   Clear
3:35 PM 28.4 °F 19.7 °F 17.6 °F 64% 30.09 in 10.0 mi South 9.2 mph - N/A   Clear
3:55 PM 26.6 °F 17.5 °F 17.6 °F 69% 30.08 in 10.0 mi SSE 9.2 mph - N/A   Clear
4:15 PM 26.6 °F 16.8 °F 17.6 °F 69% 30.07 in 10.0 mi SSE 10.4 mph - N/A   Clear
4:35 PM 28.4 °F 18.0 °F 17.6 °F 64% 30.05 in 10.0 mi SSE 12.7 mph - N/A   Clear
4:55 PM 28.4 °F 18.5 °F 15.8 °F 59% 30.03 in 10.0 mi SSE 11.5 mph - N/A   Clear
5:15 PM 28.4 °F 19.1 °F 15.8 °F 59% 30.02 in 10.0 mi South 10.4 mph - N/A   Clear
5:35 PM 28.4 °F 17.5 °F 15.8 °F 59% 30.01 in 10.0 mi SSE 13.8 mph - N/A   Clear
5:55 PM 28.4 °F 19.1 °F 15.8 °F 59% 29.99 in 10.0 mi South 10.4 mph - N/A   Clear
6:15 PM 28.4 °F 18.5 °F 15.8 °F 59% 29.98 in 10.0 mi SSE 11.5 mph - N/A   Clear
6:35 PM 30.2 °F 20.2 °F 15.8 °F 55% 29.97 in 10.0 mi South 12.7 mph - N/A   Clear
6:55 PM 28.4 °F 16.6 °F 17.6 °F 64% 29.97 in 10.0 mi South 16.1 mph 19.6 mph N/A   Clear
7:15 PM 30.2 °F 18.9 °F 17.6 °F 60% 29.96 in 10.0 mi South 16.1 mph 20.7 mph N/A   Clear
7:35 PM 30.2 °F 19.3 °F 17.6 °F 60% 29.96 in 10.0 mi South 15.0 mph - N/A   Clear
7:55 PM 30.2 °F 20.2 °F 17.6 °F 60% 29.96 in 10.0 mi South 12.7 mph - N/A   Clear
8:15 PM 30.2 °F 19.8 °F 17.6 °F 60% 29.96 in 10.0 mi South 13.8 mph - N/A   Clear
8:35 PM 32.0 °F 22.1 °F 19.4 °F 60% 29.96 in 10.0 mi South 13.8 mph - N/A   Clear
8:55 PM 32.0 °F 22.1 °F 19.4 °F 60% 29.96 in 10.0 mi SSW 13.8 mph - N/A   Clear
9:15 PM 32.0 °F 22.1 °F 21.2 °F 64% 29.95 in 10.0 mi SSW 13.8 mph - N/A   Clear
9:35 PM 32.0 °F 21.6 °F 21.2 °F 64% 29.95 in 10.0 mi SSW 15.0 mph - N/A   Clear
9:55 PM 32.0 °F 22.1 °F 21.2 °F 64% 29.95 in 10.0 mi SSW 13.8 mph - N/A   Clear
10:15 PM 32.0 °F 21.2 °F 21.2 °F 64% 29.94 in 10.0 mi SSW 16.1 mph - N/A   Clear
10:35 PM 32.0 °F 22.1 °F 21.2 °F 64% 29.94 in 10.0 mi SSW 13.8 mph - N/A   Clear
10:55 PM 33.8 °F 24.3 °F 23.0 °F 65% 29.94 in 10.0 mi SSW 13.8 mph - N/A   Clear
11:15 PM 35.6 °F 24.5 °F 23.0 °F 60% 29.94 in 10.0 mi SW 20.7 mph 25.3 mph N/A   Clear
11:35 PM 37.4 °F 26.9 °F 23.0 °F 56% 29.94 in 10.0 mi SW 20.7 mph 26.5 mph N/A   Clear
11:55 PM 35.6 °F 25.5 °F 23.0 °F 60% 29.93 in 10.0 mi SSW 17.3 mph - N/A   Clear